Year,Month,Day,Hour,Minute,Value (Times are PST for temperature in C)
2009,08,23,00,00,13.10
2009,08,23,00,01,13.00
2009,08,23,00,02,13.00
2009,08,23,00,03,12.90
2009,08,23,00,04,12.90
2009,08,23,00,05,12.90
2009,08,23,00,06,12.80
2009,08,23,00,07,12.80
2009,08,23,00,08,12.70
2009,08,23,00,09,12.70
2009,08,23,00,10,12.70
2009,08,23,00,11,12.70
2009,08,23,00,12,12.70
2009,08,23,00,13,12.70
2009,08,23,00,14,12.70
2009,08,23,00,15,12.70
2009,08,23,00,16,12.70
2009,08,23,00,17,12.70
2009,08,23,00,18,12.70
2009,08,23,00,19,12.70
2009,08,23,00,20,12.70
2009,08,23,00,21,12.70
2009,08,23,00,22,12.70
2009,08,23,00,23,12.70
2009,08,23,00,24,12.70
2009,08,23,00,25,12.60
2009,08,23,00,26,12.60
2009,08,23,00,27,12.60
2009,08,23,00,28,12.50
2009,08,23,00,29,12.50
2009,08,23,00,30,12.40
2009,08,23,00,31,12.40
2009,08,23,00,32,12.30
2009,08,23,00,33,12.30
2009,08,23,00,34,12.30
2009,08,23,00,35,12.30
2009,08,23,00,36,12.20
2009,08,23,00,37,12.20
2009,08,23,00,38,12.20
2009,08,23,00,39,12.20
2009,08,23,00,40,12.20
2009,08,23,00,41,12.20
2009,08,23,00,42,12.10
2009,08,23,00,43,12.10
2009,08,23,00,44,12.10
2009,08,23,00,45,12.00
2009,08,23,00,46,12.00
2009,08,23,00,47,11.90
2009,08,23,00,48,11.90
2009,08,23,00,49,11.90
2009,08,23,00,50,11.80
2009,08,23,00,51,11.80
2009,08,23,00,52,11.80
2009,08,23,00,53,11.70
2009,08,23,00,54,11.70
2009,08,23,00,55,11.60
2009,08,23,00,56,11.60
2009,08,23,00,57,11.50
2009,08,23,00,58,11.50
2009,08,23,00,59,11.40
2009,08,23,01,00,11.40
2009,08,23,01,01,11.30
2009,08,23,01,02,11.30
2009,08,23,01,03,11.30
2009,08,23,01,04,11.30
2009,08,23,01,05,11.30
2009,08,23,01,06,11.30
2009,08,23,01,07,11.30
2009,08,23,01,08,11.30
2009,08,23,01,09,11.30
2009,08,23,01,10,11.30
2009,08,23,01,11,11.30
2009,08,23,01,12,11.30
2009,08,23,01,13,11.30
2009,08,23,01,14,11.30
2009,08,23,01,15,11.40
2009,08,23,01,16,11.40
2009,08,23,01,17,11.40
2009,08,23,01,18,11.40
2009,08,23,01,19,11.40
2009,08,23,01,20,11.40
2009,08,23,01,21,11.30
2009,08,23,01,22,11.30
2009,08,23,01,23,11.30
2009,08,23,01,24,11.20
2009,08,23,01,25,11.20
2009,08,23,01,26,11.10
2009,08,23,01,27,11.10
2009,08,23,01,28,11.00
2009,08,23,01,29,11.00
2009,08,23,01,30,10.90
2009,08,23,01,31,10.90
2009,08,23,01,32,10.80
2009,08,23,01,33,10.80
2009,08,23,01,34,10.80
2009,08,23,01,35,10.90
2009,08,23,01,36,10.90
2009,08,23,01,37,10.90
2009,08,23,01,38,10.90
2009,08,23,01,39,10.90
2009,08,23,01,40,10.90
2009,08,23,01,41,10.90
2009,08,23,01,42,10.80
2009,08,23,01,43,10.80
2009,08,23,01,44,10.80
2009,08,23,01,45,10.80
2009,08,23,01,46,10.70
2009,08,23,01,47,10.70
2009,08,23,01,48,10.70
2009,08,23,01,49,10.60
2009,08,23,01,50,10.60
2009,08,23,01,51,10.60
2009,08,23,01,52,10.50
2009,08,23,01,53,10.50
2009,08,23,01,54,10.40
2009,08,23,01,55,10.40
2009,08,23,01,56,10.40
2009,08,23,01,57,10.40
2009,08,23,01,58,10.30
2009,08,23,01,59,10.30
2009,08,23,02,00,10.30
2009,08,23,02,01,10.30
2009,08,23,02,02,10.20
2009,08,23,02,03,10.20
2009,08,23,02,04,10.20
2009,08,23,02,05,10.20
2009,08,23,02,06,10.20
2009,08,23,02,07,10.20
2009,08,23,02,08,10.30
2009,08,23,02,09,10.30
2009,08,23,02,10,10.40
2009,08,23,02,11,10.40
2009,08,23,02,12,10.40
2009,08,23,02,13,10.60
2009,08,23,02,14,10.60
2009,08,23,02,15,10.70
2009,08,23,02,16,10.70
2009,08,23,02,17,10.80
2009,08,23,02,18,10.80
2009,08,23,02,19,10.80
2009,08,23,02,20,10.80
2009,08,23,02,21,10.80
2009,08,23,02,22,10.70
2009,08,23,02,23,10.70
2009,08,23,02,24,10.80
2009,08,23,02,25,10.90
2009,08,23,02,26,11.00
2009,08,23,02,27,11.00
2009,08,23,02,28,11.20
2009,08,23,02,29,11.30
2009,08,23,02,30,11.40
2009,08,23,02,31,11.60
2009,08,23,02,32,11.70
2009,08,23,02,33,11.70
2009,08,23,02,34,11.80
2009,08,23,02,35,11.80
2009,08,23,02,36,11.80
2009,08,23,02,37,11.80
2009,08,23,02,38,11.80
2009,08,23,02,39,11.80
2009,08,23,02,40,11.70
2009,08,23,02,41,11.70
2009,08,23,02,42,11.70
2009,08,23,02,43,11.60
2009,08,23,02,44,11.50
2009,08,23,02,45,11.50
2009,08,23,02,46,11.40
2009,08,23,02,47,11.30
2009,08,23,02,48,11.20
2009,08,23,02,49,11.20
2009,08,23,02,50,11.10
2009,08,23,02,51,11.00
2009,08,23,02,52,11.00
2009,08,23,02,53,10.90
2009,08,23,02,54,10.80
2009,08,23,02,55,10.80
2009,08,23,02,56,10.80
2009,08,23,02,57,10.70
2009,08,23,02,58,10.70
2009,08,23,02,59,10.60
2009,08,23,03,00,10.50
2009,08,23,03,01,10.50
2009,08,23,03,02,10.40
2009,08,23,03,03,10.40
2009,08,23,03,04,10.30
2009,08,23,03,05,10.30
2009,08,23,03,06,10.30
2009,08,23,03,07,10.20
2009,08,23,03,08,10.20
2009,08,23,03,09,10.20
2009,08,23,03,10,10.10
2009,08,23,03,11,10.10
2009,08,23,03,12,10.10
2009,08,23,03,13,10.00
2009,08,23,03,14,10.00
2009,08,23,03,15,9.90
2009,08,23,03,16,9.90
2009,08,23,03,17,9.80
2009,08,23,03,18,9.80
2009,08,23,03,19,9.80
2009,08,23,03,20,9.70
2009,08,23,03,21,9.70
2009,08,23,03,22,9.70
2009,08,23,03,23,9.60
2009,08,23,03,24,9.60
2009,08,23,03,25,9.60
2009,08,23,03,26,9.60
2009,08,23,03,27,9.50
2009,08,23,03,28,9.50
2009,08,23,03,29,9.50
2009,08,23,03,30,9.40
2009,08,23,03,31,9.40
2009,08,23,03,32,9.40
2009,08,23,03,33,9.40
2009,08,23,03,34,9.40
2009,08,23,03,35,9.30
2009,08,23,03,36,9.30
2009,08,23,03,37,9.30
2009,08,23,03,38,9.30
2009,08,23,03,39,9.30
2009,08,23,03,40,9.30
2009,08,23,03,41,9.30
2009,08,23,03,42,9.30
2009,08,23,03,43,9.20
2009,08,23,03,44,9.20
2009,08,23,03,45,9.20
2009,08,23,03,46,9.20
2009,08,23,03,47,9.20
2009,08,23,03,48,9.20
2009,08,23,03,49,9.10
2009,08,23,03,50,9.10
2009,08,23,03,51,9.10
2009,08,23,03,52,9.10
2009,08,23,03,53,9.10
2009,08,23,03,54,9.00
2009,08,23,03,55,9.00
2009,08,23,03,56,9.00
2009,08,23,03,57,8.90
2009,08,23,03,58,8.90
2009,08,23,03,59,8.90
2009,08,23,04,00,8.90
2009,08,23,04,01,8.90
2009,08,23,04,02,8.80
2009,08,23,04,03,8.80
2009,08,23,04,04,8.80
2009,08,23,04,05,8.80
2009,08,23,04,17,8.60
2009,08,23,04,18,8.60
2009,08,23,04,19,8.60
2009,08,23,04,20,8.50
2009,08,23,04,21,8.50
2009,08,23,04,22,8.50
2009,08,23,04,23,8.50
2009,08,23,04,24,8.50
2009,08,23,04,36,8.50
2009,08,23,04,37,8.50
2009,08,23,04,38,8.50
2009,08,23,04,39,8.50
2009,08,23,04,40,8.50
2009,08,23,04,41,8.60
2009,08,23,04,42,8.60
2009,08,23,04,43,8.60
2009,08,23,04,44,8.60
2009,08,23,04,45,8.60
2009,08,23,04,46,8.70
2009,08,23,04,47,8.70
2009,08,23,04,48,8.70
2009,08,23,04,49,8.70
2009,08,23,04,50,8.70
2009,08,23,04,51,8.80
2009,08,23,04,52,8.80
2009,08,23,04,53,8.80
2009,08,23,04,54,8.80
2009,08,23,04,55,8.90
2009,08,23,04,56,8.90
2009,08,23,04,57,8.90
2009,08,23,04,58,9.00
2009,08,23,04,59,9.00
2009,08,23,05,00,9.00
2009,08,23,05,01,9.10
2009,08,23,05,02,9.10
2009,08,23,05,03,9.10
2009,08,23,05,04,9.10
2009,08,23,05,05,9.10
2009,08,23,05,06,9.20
2009,08,23,05,07,9.20
2009,08,23,05,08,9.20
2009,08,23,05,09,9.20
2009,08,23,05,10,9.20
2009,08,23,05,11,9.20
2009,08,23,05,12,9.20
2009,08,23,05,13,9.30
2009,08,23,05,14,9.30
2009,08,23,05,15,9.30
2009,08,23,05,16,9.30
2009,08,23,05,17,9.30
2009,08,23,05,18,9.30
2009,08,23,05,19,9.40
2009,08,23,05,20,9.40
2009,08,23,05,21,9.40
2009,08,23,05,22,9.40
2009,08,23,05,23,9.40
2009,08,23,05,24,9.50
2009,08,23,05,25,9.50
2009,08,23,05,26,9.50
2009,08,23,05,27,9.60
2009,08,23,05,28,9.60
2009,08,23,05,29,9.60
2009,08,23,05,30,9.60
2009,08,23,05,31,9.60
2009,08,23,05,32,9.60
2009,08,23,05,33,9.60
2009,08,23,05,34,9.60
2009,08,23,05,35,9.60
2009,08,23,05,36,9.60
2009,08,23,05,37,9.60
2009,08,23,05,38,9.60
2009,08,23,05,39,9.60
2009,08,23,05,40,9.60
2009,08,23,05,41,9.60
2009,08,23,05,42,9.60
2009,08,23,05,43,9.60
2009,08,23,05,44,9.60
2009,08,23,05,45,9.60
2009,08,23,05,46,9.60
2009,08,23,05,47,9.60
2009,08,23,05,48,9.60
2009,08,23,05,49,9.60
2009,08,23,05,50,9.60
2009,08,23,05,51,9.60
2009,08,23,05,52,9.60
2009,08,23,05,53,9.60
2009,08,23,05,54,9.60
2009,08,23,05,55,9.60
2009,08,23,05,56,9.60
2009,08,23,05,57,9.60
2009,08,23,05,58,9.60
2009,08,23,05,59,9.60
2009,08,23,06,00,9.60
2009,08,23,06,01,9.60
2009,08,23,06,02,9.60
2009,08,23,06,03,9.60
2009,08,23,06,04,9.60
2009,08,23,06,05,9.60
2009,08,23,06,06,9.60
2009,08,23,06,07,9.60
2009,08,23,06,08,9.60
2009,08,23,06,09,9.60
2009,08,23,06,10,9.60
2009,08,23,06,11,9.60
2009,08,23,06,12,9.60
2009,08,23,06,13,9.60
2009,08,23,06,14,9.60
2009,08,23,06,15,9.60
2009,08,23,06,16,9.60
2009,08,23,06,17,9.60
2009,08,23,06,18,9.60
2009,08,23,06,19,9.60
2009,08,23,06,20,9.60
2009,08,23,06,21,9.60
2009,08,23,06,22,9.60
2009,08,23,06,23,9.60
2009,08,23,06,24,9.60
2009,08,23,06,25,9.60
2009,08,23,06,26,9.60
2009,08,23,06,27,9.60
2009,08,23,06,28,9.60
2009,08,23,06,29,9.60
2009,08,23,06,30,9.60
2009,08,23,06,31,9.60
2009,08,23,06,32,9.70
2009,08,23,06,33,9.70
2009,08,23,06,34,9.70
2009,08,23,06,35,9.70
2009,08,23,06,36,9.70
2009,08,23,06,37,9.70
2009,08,23,06,38,9.80
2009,08,23,06,39,9.80
2009,08,23,06,40,9.80
2009,08,23,06,41,9.80
2009,08,23,06,42,9.80
2009,08,23,06,43,9.80
2009,08,23,06,44,9.80
2009,08,23,06,45,9.80
2009,08,23,06,46,9.80
2009,08,23,06,47,9.80
2009,08,23,06,48,9.90
2009,08,23,06,49,9.90
2009,08,23,06,50,9.90
2009,08,23,06,51,9.90
2009,08,23,06,52,9.90
2009,08,23,06,53,9.90
2009,08,23,06,54,9.90
2009,08,23,06,55,9.90
2009,08,23,06,56,9.90
2009,08,23,06,57,9.90
2009,08,23,06,58,9.90
2009,08,23,06,59,9.90
2009,08,23,07,00,9.90
2009,08,23,07,01,9.90
2009,08,23,07,02,9.90
2009,08,23,07,03,10.00
2009,08,23,07,04,10.00
2009,08,23,07,05,10.00
2009,08,23,07,06,10.00
2009,08,23,07,07,10.00
2009,08,23,07,08,10.00
2009,08,23,07,09,10.00
2009,08,23,07,10,10.10
2009,08,23,07,11,10.10
2009,08,23,07,12,10.10
2009,08,23,07,13,10.10
2009,08,23,07,14,10.10
2009,08,23,07,15,10.10
2009,08,23,07,16,10.10
2009,08,23,07,17,10.10
2009,08,23,07,18,10.20
2009,08,23,07,19,10.20
2009,08,23,07,20,10.20
2009,08,23,07,21,10.20
2009,08,23,07,22,10.20
2009,08,23,07,23,10.20
2009,08,23,07,24,10.30
2009,08,23,07,25,10.30
2009,08,23,07,26,10.30
2009,08,23,07,27,10.30
2009,08,23,07,28,10.30
2009,08,23,07,29,10.30
2009,08,23,07,30,10.30
2009,08,23,07,31,10.40
2009,08,23,07,32,10.40
2009,08,23,07,33,10.40
2009,08,23,07,34,10.40
2009,08,23,07,35,10.40
2009,08,23,07,36,10.40
2009,08,23,07,37,10.50
2009,08,23,07,38,10.50
2009,08,23,07,39,10.50
2009,08,23,07,40,10.60
2009,08,23,07,41,10.60
2009,08,23,07,42,10.60
2009,08,23,07,43,10.70
2009,08,23,07,44,10.70
2009,08,23,07,45,10.80
2009,08,23,07,46,10.80
2009,08,23,07,47,10.90
2009,08,23,07,48,11.00
2009,08,23,07,49,11.10
2009,08,23,07,50,11.20
2009,08,23,07,51,11.30
2009,08,23,07,52,11.30
2009,08,23,07,53,11.40
2009,08,23,07,54,11.50
2009,08,23,07,55,11.60
2009,08,23,07,56,11.70
2009,08,23,07,57,11.80
2009,08,23,07,58,11.80
2009,08,23,07,59,11.90
2009,08,23,08,00,11.90
2009,08,23,08,01,12.00
2009,08,23,08,02,12.10
2009,08,23,08,03,12.20
2009,08,23,08,04,12.30
2009,08,23,08,05,12.40
2009,08,23,08,06,12.50
2009,08,23,08,07,12.60
2009,08,23,08,08,12.80
2009,08,23,08,09,12.90
2009,08,23,08,10,13.00
2009,08,23,08,11,13.10
2009,08,23,08,12,13.20
2009,08,23,08,13,13.20
2009,08,23,08,14,13.30
2009,08,23,08,15,13.30
2009,08,23,08,16,13.40
2009,08,23,08,17,13.40
2009,08,23,08,18,13.40
2009,08,23,08,19,13.40
2009,08,23,08,20,13.50
2009,08,23,08,21,13.50
2009,08,23,08,22,13.50
2009,08,23,08,23,13.50
2009,08,23,08,24,13.60
2009,08,23,08,25,13.60
2009,08,23,08,26,13.60
2009,08,23,08,27,13.60
2009,08,23,08,28,13.60
2009,08,23,08,29,13.60
2009,08,23,08,30,13.60
2009,08,23,08,31,13.60
2009,08,23,08,32,13.60
2009,08,23,08,33,13.60
2009,08,23,08,34,13.60
2009,08,23,08,35,13.60
2009,08,23,08,36,13.60
2009,08,23,08,37,13.60
2009,08,23,08,38,13.60
2009,08,23,08,39,13.60
2009,08,23,08,40,13.60
2009,08,23,08,41,13.60
2009,08,23,08,42,13.60
2009,08,23,08,43,13.60
2009,08,23,08,44,13.60
2009,08,23,08,45,13.60
2009,08,23,08,46,13.60
2009,08,23,08,47,13.60
2009,08,23,08,48,13.60
2009,08,23,08,49,13.70
2009,08,23,08,50,13.70
2009,08,23,08,51,13.70
2009,08,23,08,52,13.70
2009,08,23,08,53,13.70
2009,08,23,08,54,13.70
2009,08,23,08,55,13.70
2009,08,23,08,56,13.60
2009,08,23,08,57,13.60
2009,08,23,08,58,13.60
2009,08,23,08,59,13.70
2009,08,23,09,00,13.70
2009,08,23,09,01,13.70
2009,08,23,09,02,13.70
2009,08,23,09,03,13.70
2009,08,23,09,04,13.80
2009,08,23,09,05,13.80
2009,08,23,09,06,13.90
2009,08,23,09,07,14.00
2009,08,23,09,08,14.10
2009,08,23,09,09,14.20
2009,08,23,09,10,14.30
2009,08,23,09,11,14.50
2009,08,23,09,12,14.60
2009,08,23,09,13,14.80
2009,08,23,09,14,14.90
2009,08,23,09,15,15.00
2009,08,23,09,16,15.00
2009,08,23,09,17,15.20
2009,08,23,09,18,15.30
2009,08,23,09,19,15.40
2009,08,23,09,20,15.40
2009,08,23,09,21,15.50
2009,08,23,09,22,15.60
2009,08,23,09,23,15.70
2009,08,23,09,24,15.80
2009,08,23,09,25,15.80
2009,08,23,09,26,15.90
2009,08,23,09,27,15.90
2009,08,23,09,28,16.00
2009,08,23,09,29,16.00
2009,08,23,09,30,16.00
2009,08,23,09,31,16.10
2009,08,23,09,32,16.10
2009,08,23,09,33,16.20
2009,08,23,09,34,16.20
2009,08,23,09,35,16.20
2009,08,23,09,36,16.20
2009,08,23,09,37,16.30
2009,08,23,09,38,16.30
2009,08,23,09,39,16.30
2009,08,23,09,40,16.40
2009,08,23,09,41,16.40
2009,08,23,09,42,16.40
2009,08,23,09,43,16.50
2009,08,23,09,44,16.50
2009,08,23,09,45,16.50
2009,08,23,09,46,16.40
2009,08,23,09,47,16.40
2009,08,23,09,48,16.40
2009,08,23,09,49,16.40
2009,08,23,09,50,16.30
2009,08,23,09,51,16.30
2009,08,23,09,52,16.30
2009,08,23,09,53,16.30
2009,08,23,09,54,16.30
2009,08,23,09,55,16.20
2009,08,23,09,56,16.20
2009,08,23,09,57,16.20
2009,08,23,09,58,16.20
2009,08,23,09,59,16.20
2009,08,23,10,00,16.30
2009,08,23,10,01,16.30
2009,08,23,10,02,16.30
2009,08,23,10,03,16.30
2009,08,23,10,04,16.30
2009,08,23,10,05,16.40
2009,08,23,10,06,16.40
2009,08,23,10,07,16.50
2009,08,23,10,08,16.50
2009,08,23,10,09,16.50
2009,08,23,10,10,16.50
2009,08,23,10,11,16.60
2009,08,23,10,12,16.60
2009,08,23,10,13,16.70
2009,08,23,10,14,16.80
2009,08,23,10,15,16.80
2009,08,23,10,16,16.80
2009,08,23,10,17,16.80
2009,08,23,10,18,16.80
2009,08,23,10,19,16.80
2009,08,23,10,20,16.80
2009,08,23,10,21,16.80
2009,08,23,10,22,16.80
2009,08,23,10,23,16.80
2009,08,23,10,24,16.80
2009,08,23,10,25,16.80
2009,08,23,10,26,16.80
2009,08,23,10,27,16.80
2009,08,23,10,28,16.90
2009,08,23,10,29,17.00
2009,08,23,10,30,17.10
2009,08,23,10,31,17.10
2009,08,23,10,32,17.20
2009,08,23,10,33,17.30
2009,08,23,10,34,17.40
2009,08,23,10,35,17.40
2009,08,23,10,36,17.50
2009,08,23,10,37,17.50
2009,08,23,10,38,17.50
2009,08,23,10,39,17.50
2009,08,23,10,40,17.50
2009,08,23,10,41,17.50
2009,08,23,10,42,17.50
2009,08,23,10,43,17.50
2009,08,23,10,44,17.50
2009,08,23,10,45,17.50
2009,08,23,10,46,17.50
2009,08,23,10,47,17.60
2009,08,23,10,48,17.60
2009,08,23,10,49,17.70
2009,08,23,10,50,17.80
2009,08,23,10,51,17.80
2009,08,23,10,52,17.90
2009,08,23,10,53,17.90
2009,08,23,10,54,17.90
2009,08,23,10,55,18.00
2009,08,23,10,56,18.00
2009,08,23,10,57,18.10
2009,08,23,10,58,18.20
2009,08,23,10,59,18.30
2009,08,23,11,00,18.30
2009,08,23,11,01,18.30
2009,08,23,11,02,18.30
2009,08,23,11,03,18.30
2009,08,23,11,04,18.20
2009,08,23,11,05,18.20
2009,08,23,11,06,18.10
2009,08,23,11,07,18.10
2009,08,23,11,08,18.10
2009,08,23,11,09,18.10
2009,08,23,11,10,18.10
2009,08,23,11,11,18.00
2009,08,23,11,12,17.80
2009,08,23,11,13,17.70
2009,08,23,11,14,17.50
2009,08,23,11,15,17.40
2009,08,23,11,16,17.40
2009,08,23,11,17,17.40
2009,08,23,11,18,17.50
2009,08,23,11,19,17.50
2009,08,23,11,20,17.60
2009,08,23,11,21,17.70
2009,08,23,11,22,17.70
2009,08,23,11,23,17.70
2009,08,23,11,24,17.80
2009,08,23,11,25,17.80
2009,08,23,11,26,17.80
2009,08,23,11,27,17.80
2009,08,23,11,28,17.80
2009,08,23,11,29,17.90
2009,08,23,11,30,18.00
2009,08,23,11,31,18.00
2009,08,23,11,32,18.10
2009,08,23,11,33,18.10
2009,08,23,11,34,18.20
2009,08,23,11,35,18.30
2009,08,23,11,36,18.40
2009,08,23,11,37,18.50
2009,08,23,11,38,18.50
2009,08,23,11,39,18.60
2009,08,23,11,40,18.70
2009,08,23,11,41,18.80
2009,08,23,11,42,18.90
2009,08,23,11,43,18.90
2009,08,23,11,44,18.90
2009,08,23,11,45,18.90
2009,08,23,11,46,19.00
2009,08,23,11,47,19.00
2009,08,23,11,48,19.00
2009,08,23,11,49,18.90
2009,08,23,11,50,18.90
2009,08,23,11,51,18.90
2009,08,23,11,52,18.90
2009,08,23,11,53,18.80
2009,08,23,11,54,18.80
2009,08,23,11,55,18.80
2009,08,23,11,56,18.80
2009,08,23,11,57,18.80
2009,08,23,11,58,18.80
2009,08,23,11,59,18.70
2009,08,23,12,00,18.60
2009,08,23,12,01,18.50
2009,08,23,12,02,18.40
2009,08,23,12,03,18.30
2009,08,23,12,04,18.30
2009,08,23,12,05,18.20
2009,08,23,12,06,18.20
2009,08,23,12,07,18.10
2009,08,23,12,08,18.10
2009,08,23,12,09,18.10
2009,08,23,12,10,18.00
2009,08,23,12,11,18.00
2009,08,23,12,12,17.90
2009,08,23,12,13,17.90
2009,08,23,12,14,17.90
2009,08,23,12,15,17.90
2009,08,23,12,16,17.90
2009,08,23,12,17,18.00
2009,08,23,12,18,18.00
2009,08,23,12,19,18.10
2009,08,23,12,20,18.20
2009,08,23,12,21,18.30
2009,08,23,12,22,18.40
2009,08,23,12,23,18.40
2009,08,23,12,24,18.40
2009,08,23,12,25,18.40
2009,08,23,12,26,18.30
2009,08,23,12,27,18.30
2009,08,23,12,28,18.30
2009,08,23,12,29,18.20
2009,08,23,12,30,18.20
2009,08,23,12,31,18.20
2009,08,23,12,32,18.10
2009,08,23,12,33,18.00
2009,08,23,12,34,18.00
2009,08,23,12,35,17.90
2009,08,23,12,36,17.90
2009,08,23,12,37,17.80
2009,08,23,12,38,17.80
2009,08,23,12,39,17.70
2009,08,23,12,40,17.70
2009,08,23,12,41,17.70
2009,08,23,12,42,17.70
2009,08,23,12,43,17.60
2009,08,23,12,44,17.60
2009,08,23,12,45,17.60
2009,08,23,12,46,17.60
2009,08,23,12,47,17.60
2009,08,23,12,48,17.60
2009,08,23,12,49,17.60
2009,08,23,12,50,17.70
2009,08,23,12,51,17.70
2009,08,23,12,52,17.70
2009,08,23,12,53,17.70
2009,08,23,12,54,17.70
2009,08,23,12,55,17.70
2009,08,23,12,56,17.70
2009,08,23,12,57,17.70
2009,08,23,12,58,17.70
2009,08,23,12,59,17.80
2009,08,23,13,00,17.90
2009,08,23,13,01,18.00
2009,08,23,13,02,18.00
2009,08,23,13,03,18.00
2009,08,23,13,04,18.00
2009,08,23,13,05,18.00
2009,08,23,13,06,18.10
2009,08,23,13,07,18.10
2009,08,23,13,08,18.20
2009,08,23,13,09,18.30
2009,08,23,13,10,18.30
2009,08,23,13,11,18.30
2009,08,23,13,12,18.40
2009,08,23,13,13,18.40
2009,08,23,13,14,18.40
2009,08,23,13,15,18.50
2009,08,23,13,16,18.50
2009,08,23,13,17,18.50
2009,08,23,13,18,18.50
2009,08,23,13,19,18.50
2009,08,23,13,20,18.50
2009,08,23,13,21,18.50
2009,08,23,13,22,18.50
2009,08,23,13,23,18.50
2009,08,23,13,24,18.50
2009,08,23,13,25,18.50
2009,08,23,13,26,18.40
2009,08,23,13,27,18.40
2009,08,23,13,28,18.40
2009,08,23,13,29,18.50
2009,08,23,13,30,18.60
2009,08,23,13,31,18.70
2009,08,23,13,32,18.70
2009,08,23,13,33,18.80
2009,08,23,13,34,18.90
2009,08,23,13,35,19.00
2009,08,23,13,36,19.10
2009,08,23,13,37,19.10
2009,08,23,13,38,19.20
2009,08,23,13,39,19.30
2009,08,23,13,40,19.30
2009,08,23,13,41,19.40
2009,08,23,13,42,19.50
2009,08,23,13,43,19.70
2009,08,23,13,44,19.80
2009,08,23,13,45,19.90
2009,08,23,13,46,19.90
2009,08,23,13,47,19.90
2009,08,23,13,48,19.90
2009,08,23,13,49,19.90
2009,08,23,13,50,20.00
2009,08,23,13,51,20.10
2009,08,23,13,52,20.20
2009,08,23,13,53,20.20
2009,08,23,13,54,20.20
2009,08,23,13,55,20.20
2009,08,23,13,56,20.20
2009,08,23,13,57,20.20
2009,08,23,13,58,20.10
2009,08,23,13,59,20.10
2009,08,23,14,00,20.10
2009,08,23,14,01,20.10
2009,08,23,14,02,20.10
2009,08,23,14,03,20.10
2009,08,23,14,04,20.10
2009,08,23,14,05,20.20
2009,08,23,14,06,20.30
2009,08,23,14,07,20.40
2009,08,23,14,08,20.40
2009,08,23,14,09,20.50
2009,08,23,14,10,20.50
2009,08,23,14,11,20.50
2009,08,23,14,12,20.60
2009,08,23,14,13,20.60
2009,08,23,14,14,20.50
2009,08,23,14,15,20.40
2009,08,23,14,16,20.40
2009,08,23,14,17,20.40
2009,08,23,14,18,20.30
2009,08,23,14,19,20.20
2009,08,23,14,20,20.20
2009,08,23,14,21,20.20
2009,08,23,14,22,20.20
2009,08,23,14,23,20.10
2009,08,23,14,24,20.00
2009,08,23,14,25,19.90
2009,08,23,14,26,19.80
2009,08,23,14,27,19.70
2009,08,23,14,28,19.70
2009,08,23,14,29,19.70
2009,08,23,14,30,19.80
2009,08,23,14,31,19.80
2009,08,23,14,32,19.90
2009,08,23,14,33,19.90
2009,08,23,14,34,19.90
2009,08,23,14,35,19.90
2009,08,23,14,36,19.90
2009,08,23,14,37,19.80
2009,08,23,14,38,19.80
2009,08,23,14,39,19.80
2009,08,23,14,40,19.80
2009,08,23,14,41,19.80
2009,08,23,14,42,19.70
2009,08,23,14,43,19.60
2009,08,23,14,44,19.50
2009,08,23,14,45,19.50
2009,08,23,14,46,19.40
2009,08,23,14,47,19.30
2009,08,23,14,48,19.30
2009,08,23,14,49,19.30
2009,08,23,14,50,19.30
2009,08,23,14,51,19.30
2009,08,23,14,52,19.30
2009,08,23,14,53,19.30
2009,08,23,14,54,19.30
2009,08,23,14,55,19.30
2009,08,23,14,56,19.30
2009,08,23,14,57,19.30
2009,08,23,14,58,19.20
2009,08,23,14,59,19.30
2009,08,23,15,00,19.30
2009,08,23,15,01,19.40
2009,08,23,15,02,19.40
2009,08,23,15,03,19.50
2009,08,23,15,04,19.60
2009,08,23,15,05,19.70
2009,08,23,15,06,19.70
2009,08,23,15,07,19.70
2009,08,23,15,08,19.70
2009,08,23,15,09,19.70
2009,08,23,15,10,19.70
2009,08,23,15,11,19.80
2009,08,23,15,12,19.80
2009,08,23,15,13,19.80
2009,08,23,15,14,19.90
2009,08,23,15,15,20.00
2009,08,23,15,16,20.00
2009,08,23,15,17,20.10
2009,08,23,15,18,20.20
2009,08,23,15,19,20.30
2009,08,23,15,20,20.20
2009,08,23,15,21,20.10
2009,08,23,15,22,20.00
2009,08,23,15,23,19.90
2009,08,23,15,24,19.90
2009,08,23,15,25,19.90
2009,08,23,15,26,19.90
2009,08,23,15,27,19.90
2009,08,23,15,28,19.90
2009,08,23,15,29,19.90
2009,08,23,15,30,19.90
2009,08,23,15,31,20.00
2009,08,23,15,32,20.10
2009,08,23,15,33,20.20
2009,08,23,15,34,20.30
2009,08,23,15,35,20.30
2009,08,23,15,36,20.40
2009,08,23,15,37,20.40
2009,08,23,15,38,20.40
2009,08,23,15,39,20.40
2009,08,23,15,40,20.40
2009,08,23,15,41,20.40
2009,08,23,15,42,20.30
2009,08,23,15,43,20.30
2009,08,23,15,44,20.40
2009,08,23,15,45,20.50
2009,08,23,15,46,20.50
2009,08,23,15,47,20.60
2009,08,23,15,48,20.60
2009,08,23,15,49,20.60
2009,08,23,15,50,20.60
2009,08,23,15,51,20.60
2009,08,23,15,52,20.60
2009,08,23,15,53,20.50
2009,08,23,15,54,20.40
2009,08,23,15,55,20.40
2009,08,23,15,56,20.40
2009,08,23,15,57,20.30
2009,08,23,15,58,20.20
2009,08,23,15,59,20.20
2009,08,23,16,00,20.20
2009,08,23,16,01,20.20
2009,08,23,16,02,20.20
2009,08,23,16,03,20.20
2009,08,23,16,04,20.20
2009,08,23,16,05,20.20
2009,08,23,16,06,20.20
2009,08,23,16,07,20.20
2009,08,23,16,08,20.20
2009,08,23,16,09,20.20
2009,08,23,16,10,20.20
2009,08,23,16,11,20.20
2009,08,23,16,12,20.20
2009,08,23,16,13,20.30
2009,08,23,16,14,20.30
2009,08,23,16,15,20.30
2009,08,23,16,16,20.30
2009,08,23,16,17,20.30
2009,08,23,16,18,20.30
2009,08,23,16,19,20.20
2009,08,23,16,20,20.20
2009,08,23,16,21,20.10
2009,08,23,16,22,20.10
2009,08,23,16,23,20.00
2009,08,23,16,24,20.00
2009,08,23,16,25,20.00
2009,08,23,16,26,20.00
2009,08,23,16,27,20.00
2009,08,23,16,28,20.00
2009,08,23,16,29,20.00
2009,08,23,16,30,20.00
2009,08,23,16,31,20.00
2009,08,23,16,32,20.00
2009,08,23,16,33,20.00
2009,08,23,16,34,19.90
2009,08,23,16,35,19.80
2009,08,23,16,36,19.80
2009,08,23,16,37,19.80
2009,08,23,16,38,19.80
2009,08,23,16,39,19.80
2009,08,23,16,40,19.80
2009,08,23,16,41,19.80
2009,08,23,16,42,19.80
2009,08,23,16,43,19.80
2009,08,23,16,44,19.80
2009,08,23,16,45,19.80
2009,08,23,16,46,19.80
2009,08,23,16,47,19.60
2009,08,23,16,48,19.60
2009,08,23,16,49,19.60
2009,08,23,16,50,19.60
2009,08,23,16,51,19.60
2009,08,23,16,52,19.60
2009,08,23,16,53,19.50
2009,08,23,16,54,19.50
2009,08,23,16,55,19.40
2009,08,23,16,56,19.40
2009,08,23,16,57,19.50
2009,08,23,16,58,19.50
2009,08,23,16,59,19.50
2009,08,23,17,00,19.50
2009,08,23,17,01,19.50
2009,08,23,17,02,19.50
2009,08,23,17,03,19.50
2009,08,23,17,04,19.50
2009,08,23,17,05,19.50
2009,08,23,17,06,19.50
2009,08,23,17,07,19.50
2009,08,23,17,08,19.50
2009,08,23,17,09,19.40
2009,08,23,17,10,19.40
2009,08,23,17,11,19.40
2009,08,23,17,12,19.40
2009,08,23,17,13,19.40
2009,08,23,17,14,19.40
2009,08,23,17,15,19.40
2009,08,23,17,16,19.40
2009,08,23,17,17,19.40
2009,08,23,17,18,19.40
2009,08,23,17,19,19.40
2009,08,23,17,20,19.40
2009,08,23,17,21,19.40
2009,08,23,17,22,19.40
2009,08,23,17,23,19.40
2009,08,23,17,24,19.40
2009,08,23,17,25,19.40
2009,08,23,17,26,19.40
2009,08,23,17,27,19.40
2009,08,23,17,28,19.40
2009,08,23,17,29,19.40
2009,08,23,17,30,19.30
2009,08,23,17,31,19.30
2009,08,23,17,32,19.30
2009,08,23,17,33,19.30
2009,08,23,17,34,19.30
2009,08,23,17,35,19.30
2009,08,23,17,36,19.30
2009,08,23,17,37,19.30
2009,08,23,17,38,19.30
2009,08,23,17,39,19.30
2009,08,23,17,40,19.30
2009,08,23,17,41,19.30
2009,08,23,17,42,19.30
2009,08,23,17,43,19.30
2009,08,23,17,44,19.30
2009,08,23,17,45,19.30
2009,08,23,17,46,19.30
2009,08,23,17,47,19.20
2009,08,23,17,48,19.20
2009,08,23,17,49,19.20
2009,08,23,17,50,19.20